| time (UTC) | temp F | wind direction | speed knots | gust knots | rain 1hr in | rain 24hr in | rain mn in | humidity % | barometer mb |
| 20260506211610 | 68 | 279 | 0.9 | 4.3 | 0.00 | 0.19 | 0.19 | 34 | 1006.2 |
| 20260506210055 | 67 | 149 | 0.0 | 2.6 | 0.00 | 0.19 | 0.19 | 31 | 1006.3 |
| 20260506204550 | 67 | 86 | 0.9 | 4.3 | 0.00 | 0.19 | 0.19 | 35 | 1006.3 |
| 20260506203045 | 68 | 278 | 0.9 | 5.2 | 0.00 | 0.19 | 0.19 | 33 | 1006.2 |
| 20260506201541 | 66 | 246 | 0.9 | 5.2 | 0.00 | 0.19 | 0.19 | 16 | 1006.0 |
| 20260506200042 | 65 | 99 | 0.0 | 2.6 | 0.00 | 0.19 | 0.19 | 6 | 1006.3 |
| 20260506194537 | 65 | 354 | 0.9 | 2.6 | 0.00 | 0.19 | 0.19 | 1 | 1006.4 |
| 20260506193029 | 64 | 37 | 0.9 | 3.5 | 0.00 | 0.19 | 0.19 | 1 | 1006.5 |
| 20260506191523 | 63 | 70 | 0.9 | 4.3 | 0.00 | 0.19 | 0.19 | 1 | 1006.6 |
| 20260506190019 | 63 | 297 | 1.7 | 4.3 | 0.00 | 0.19 | 0.19 | 1 | 1006.9 |
| 20260506184514 | 63 | 72 | 0.0 | 3.5 | 0.00 | 0.19 | 0.19 | 1 | 1007.0 |
| 20260506183009 | 63 | 153 | 0.9 | 5.2 | 0.00 | 0.19 | 0.19 | 1 | 1007.2 |
| 20260506181513 | 63 | 358 | 0.9 | 8.7 | 0.00 | 0.19 | 0.19 | 1 | 1007.3 |
| 20260506180016 | 63 | 229 | 0.9 | 3.5 | 0.00 | 0.19 | 0.19 | 1 | 1007.1 |
| 20260506174507 | 63 | 243 | 0.9 | 5.2 | 0.00 | 0.19 | 0.19 | 1 | 1007.2 |
| 20260506173001 | 63 | 294 | 0.0 | 5.2 | 0.00 | 0.19 | 0.19 | 1 | 1007.2 |
| 20260506171609 | 63 | 260 | 0.9 | 6.1 | 0.01 | 0.19 | 0.19 | 1 | 1007.5 |
| 20260506170100 | 63 | 207 | 1.7 | 7.0 | 0.02 | 0.19 | 0.19 | 1 | 1007.5 |
| 20260506164609 | 63 | 249 | 0.0 | 7.8 | 0.04 | 0.19 | 0.19 | 1 | 1007.5 |
| 20260506163145 | 63 | 269 | 0.9 | 4.3 | 0.07 | 0.19 | 0.19 | 1 | 1007.4 |
| 20260506161541 | 63 | 346 | 0.0 | 0.9 | 0.10 | 0.18 | 0.18 | 1 | 1007.5 |
| 20260506160039 | 62 | 278 | 0.0 | 1.7 | 0.12 | 0.17 | 0.17 | 1 | 1008.5 |
| 20260506154531 | 62 | 302 | 1.7 | 4.3 | 0.11 | 0.15 | 0.15 | 1 | 1008.8 |
| 20260506153029 | 62 | 294 | 0.0 | 1.7 | 0.10 | 0.12 | 0.12 | 1 | 1008.6 |
| 20260506151522 | 62 | 41 | 0.0 | 3.5 | 0.08 | 0.08 | 0.08 | 1 | 1008.6 |
| 20260506150018 | 62 | 32 | 0.0 | 1.7 | 0.05 | 0.05 | 0.05 | 1 | 1008.7 |
| 20260506144513 | 62 | 40 | 0.0 | 0.9 | 0.04 | 0.04 | 0.04 | 4 | 1008.5 |
| 20260506143007 | 63 | 297 | 0.0 | 1.7 | 0.02 | 0.02 | 0.02 | 40 | 1008.6 |
| 20260506141504 | 65 | 244 | 0.9 | 2.6 | 0.00 | 0.00 | 0.00 | 56 | 1008.7 |
| 20260506140005 | 66 | 219 | 0.9 | 4.3 | 0.00 | 0.00 | 0.00 | 60 | 1008.5 |
| 20260506134504 | 66 | 80 | 0.9 | 4.3 | 0.00 | 0.00 | 0.00 | 60 | 1008.3 |
| 20260506133003 | 66 | 86 | 0.9 | 7.0 | 0.00 | 0.00 | 0.00 | 60 | 1008.5 |
| 20260506131502 | 66 | 326 | 0.0 | 3.5 | 0.00 | 0.00 | 0.00 | 61 | 1008.5 |
| 20260506130000 | 66 | 250 | 0.0 | 4.3 | 0.00 | 0.00 | 0.00 | 62 | 1008.7 |
| 20260506124600 | 66 | 309 | 0.9 | 7.0 | 0.00 | 0.00 | 0.00 | 62 | 1008.7 |
| 20260506123100 | 66 | 346 | 0.0 | 5.2 | 0.00 | 0.00 | 0.00 | 61 | 1008.6 |
| 20260506121613 | 66 | 51 | 0.0 | 4.3 | 0.00 | 0.00 | 0.00 | 61 | 1008.4 |
| 20260506120119 | 66 | 283 | 0.0 | 4.3 | 0.00 | 0.00 | 0.00 | 61 | 1008.3 |
| 20260506114557 | 65 | 107 | 0.0 | 3.5 | 0.00 | 0.00 | 0.00 | 60 | 1008.2 |
| 20260506113104 | 65 | 274 | 0.0 | 3.5 | 0.00 | 0.00 | 0.00 | 60 | 1008.3 |
| 20260506111558 | 65 | 238 | 0.9 | 7.0 | 0.00 | 0.00 | 0.00 | 60 | 1008.2 |
| 20260506110057 | 65 | 319 | 0.0 | 2.6 | 0.00 | 0.00 | 0.00 | 60 | 1008.2 |
| 20260506104555 | 64 | 274 | 0.0 | 3.5 | 0.00 | 0.00 | 0.00 | 60 | 1008.2 |
| 20260506103054 | 65 | 40 | 0.0 | 4.3 | 0.00 | 0.00 | 0.00 | 61 | 1008.0 |
| 20260506101554 | 65 | 139 | 0.0 | 2.6 | 0.00 | 0.00 | 0.00 | 62 | 1007.9 |
| 20260506100050 | 65 | 301 | 0.0 | 4.3 | 0.00 | 0.00 | 0.00 | 62 | 1008.0 |
| 20260506094551 | 65 | 315 | 0.9 | 3.5 | 0.00 | 0.00 | 0.00 | 62 | 1008.0 |
| 20260506093051 | 65 | 295 | 0.0 | 2.6 | 0.00 | 0.00 | 0.00 | 63 | 1007.9 |
| 20260506091549 | 66 | 33 | 0.0 | 1.7 | 0.00 | 0.00 | 0.00 | 63 | 1007.9 |
| 20260506090048 | 66 | 311 | 0.0 | 7.0 | 0.00 | 0.00 | 0.00 | 63 | 1008.0 |
| 20260506084547 | 66 | 330 | 0.0 | 3.5 | 0.00 | 0.00 | 0.00 | 63 | 1008.0 |
| 20260506083047 | 66 | 288 | 0.9 | 7.0 | 0.00 | 0.00 | 0.00 | 63 | 1008.0 |
| 20260506081550 | 66 | 122 | 0.0 | 4.3 | 0.00 | 0.00 | 0.00 | 63 | 1008.0 |
| 20260506073043 | 66 | 215 | 0.0 | 3.5 | 0.00 | 0.00 | 0.00 | 64 | 1008.4 |
| 20260506071549 | 66 | 226 | 0.0 | 6.1 | 0.00 | 0.00 | 0.00 | 64 | 1008.4 |
| 20260506061538 | 66 | 326 | 0.0 | 0.9 | 0.00 | 0.00 | 0.00 | 65 | 1008.8 |
| 20260506044535 | 66 | 82 | 0.0 | 2.6 | 0.00 | 0.00 | 0.00 | 65 | 1009.4 |
| 20260506043023 | 66 | 51 | 0.0 | 2.6 | 0.00 | 0.00 | 0.00 | 65 | 1009.4 |
| 20260506041524 | 66 | 24 | 0.0 | 3.5 | 0.00 | 0.00 | 0.00 | 65 | 1009.4 |
| 20260506040019 | 66 | 58 | 0.0 | 3.5 | 0.00 | 0.00 | 0.00 | 65 | 1009.3 |
| 20260506034519 | 66 | 339 | 0.0 | 2.6 | 0.00 | 0.00 | 0.00 | 65 | 1009.3 |
| 20260506033017 | 67 | 210 | 0.0 | 0.9 | 0.00 | 0.00 | 0.00 | 63 | 1009.1 |
| 20260506031518 | 68 | 100 | 0.0 | 2.6 | 0.00 | 0.00 | 0.00 | 62 | 1009.1 |
| 20260506030021 | 68 | 145 | 0.0 | 3.5 | 0.00 | 0.00 | 0.00 | 61 | 1009.1 |
| 20260506024515 | 69 | 148 | 0.0 | 1.7 | 0.00 | 0.00 | 0.00 | 60 | 1009.0 |
| 20260506023015 | 69 | 320 | 0.0 | 0.9 | 0.00 | 0.00 | 0.00 | 58 | 1009.1 |
| 20260506021514 | 70 | 150 | 0.0 | 0.9 | 0.00 | 0.00 | 0.00 | 57 | 1009.1 |
| 20260506020013 | 70 | 297 | 0.0 | 1.7 | 0.00 | 0.00 | 0.00 | 56 | 1009.1 |
| 20260506014512 | 71 | 355 | 0.0 | 0.9 | 0.00 | 0.00 | 0.00 | 54 | 1009.0 |
| 20260506013012 | 72 | 297 | 0.0 | 3.5 | 0.00 | 0.00 | 0.00 | 53 | 1008.8 |
| 20260506011511 | 72 | 260 | 0.0 | 2.6 | 0.00 | 0.00 | 0.00 | 50 | 1008.6 |
| 20260506010011 | 73 | 103 | 0.0 | 2.6 | 0.00 | 0.00 | 0.00 | 50 | 1008.5 |
| 20260506004510 | 73 | 76 | 0.0 | 2.6 | 0.00 | 0.00 | 0.00 | 49 | 1008.4 |
| 20260506003009 | 74 | 139 | 0.0 | 3.5 | 0.00 | 0.00 | 0.00 | 47 | 1008.2 |
| 20260506001509 | 75 | 335 | 0.0 | 0.0 | 0.00 | 0.00 | 0.00 | 46 | 1008.0 |
| 20260506000008 | 76 | 108 | 0.0 | 6.1 | 0.00 | 0.00 | 0.00 | 43 | 1007.9 |
| 20260505234509 | 76 | 342 | 0.9 | 4.3 | 0.00 | 0.00 | 0.00 | 44 | 1007.8 |
| 20260505233009 | 77 | 149 | 0.0 | 2.6 | 0.00 | 0.00 | 0.00 | 42 | 1007.7 |
| 20260505231510 | 78 | 266 | 0.9 | 5.2 | 0.00 | 0.00 | 0.00 | 40 | 1007.7 |
| 20260505230006 | 79 | 246 | 0.9 | 6.1 | 0.00 | 0.00 | 0.00 | 40 | 1007.6 |
| 20260505224506 | 79 | 71 | 0.0 | 4.3 | 0.00 | 0.00 | 0.00 | 39 | 1007.6 |
| 20260505223009 | 81 | 276 | 1.7 | 7.0 | 0.00 | 0.00 | 0.00 | 37 | 1007.5 |
| 20260505221504 | 82 | 287 | 0.0 | 7.0 | 0.00 | 0.00 | 0.00 | 37 | 1007.5 |
| 20260505220007 | 82 | 231 | 2.6 | 8.7 | 0.00 | 0.00 | 0.00 | 34 | 1007.4 |
| 20260505214502 | 83 | 277 | 1.7 | 11.3 | 0.00 | 0.00 | 0.00 | 36 | 1007.4 |
| 20260505213001 | 83 | 127 | 2.6 | 7.0 | 0.00 | 0.00 | 0.00 | 34 | 1007.2 |